Probability
0 0 0 0 0 0 0 0 0 0 0 0 0 6 19 23 26 32 42 61 71 87 81 87 94 100 100 100 100 97 97 97 97 100 100 97 97 97 100 100 100 100 97 90
0 0 0 0 0 0 0 0 0 0 0 0 0 6 19 16 16 26 42 61 84 87 87 94 97 97 100 100 94 94 97 97 97 97 97 97 100 100 100 97 97 97 90 87
0 0 0 0 0 0 0 0 0 0 0 0 0 0 10 13 13 26 39 65 74 87 90 94 97 97 100 100 97 94 97 97 97 94 94 94 100 90 94 94 97 97 94 87
0 0 0 0 0 0 0 0 0 0 0 0 0 0 10 16 19 23 42 52 68 81 94 94 97 100 100 100 100 94 97 97 97 97 94 94 94 90 87 90 97 97 97 90
0 0 0 0 0 0 0 0 0 0 0 0 0 0 0 6 19 32 42 52 61 71 84 94 100 97 97 100 97 94 94 94 94 97 94 97 94 94 90 94 97 100 97 94
0 0 0 0 0 0 0 0 0 0 0 0 0 0 0 3 19 26 32 48 61 68 81 97 100 100 100 100 97 94 97 97 97 97 94 94 90 90 87 94 90 97 100 100
0 0 0 0 0 0 0 0 0 0 0 0 0 0 0 3 10 29 32 35 48 61 77 90 100 100 100 100 97 97 100 100 97 94 90 94 94 94 90 97 94 90 87 90
0 0 0 0 0 0 0 0 0 0 0 0 0 0 3 3 13 23 32 42 45 55 74 87 94 100 97 97 97 97 100 97 94 94 90 94 94 90 94 90 84 74 77 87
0 0 0 0 0 0 0 0 0 0 0 0 0 3 6 13 13 16 23 32 45 55 61 81 87 90 87 94 97 97 94 94 94 90 90 90 90 90 84 81 71 74 81 68
0 0 0 0 0 0 0 0 0 0 0 0 0 3 6 23 16 13 23 32 42 55 61 68 77 84 87 90 87 84 90 90 87 87 90 90 94 87 81 71 71 68 71 71
0 0 0 0 0 0 0 0 0 0 0 0 0 3 3 29 19 23 32 45 48 52 45 61 74 81 84 81 81 84 84 90 90 87 87 90 90 84 77 77 71 71 71 74
0 0 0 0 0 0 0 0 0 0 3 0 0 6 3 10 19 29 42 52 52 52 52 55 65 87 84 81 81 84 84 90 90 90 87 84 87 84 81 77 77 77 77 77
0 0 0 0 0 0 0 0 0 0 0 0 0 0 3 13 23 39 55 55 71 68 65 74 81 84 84 81 84 84 81 81 87 84 84 77 74 77 77 74 77 77 77 77
0 0 0 0 0 0 0 0 0 0 0 0 0 6 13 19 23 42 58 58 68 68 77 77 87 87 87 84 81 81 81 77 77 81 77 74 71 71 74 77 77 74 74 71
0 0 0 0 0 0 0 0 0 0 0 0 0 10 16 26 32 42 58 65 65 74 77 81 84 87 84 81 77 77 74 74 74 74 71 71 68 71 74 74 71 68 61 61
0 0 0 0 0 0 0 0 0 0 0 0 3 10 26 32 42 52 65 71 71 71 77 77 81 87 74 74 74 71 68 65 71 71 65 65 61 61 65 71 61 58 55 48
0 3 3 0 0 0 0 0 0 0 3 3 6 23 29 29 45 61 65 68 71 68 74 74 74 77 81 74 71 68 65 65 68 65 58 58 58 48 48 48 52 52 52 48
0 10 13 3 0 0 0 3 3 3 3 10 13 23 29 35 55 61 58 74 74 71 77 74 74 81 77 68 65 65 61 65 61 58 52 58 45 42 48 48 52 52 55 52
3 6 3 3 0 0 0 3 3 3 6 13 19 23 35 42 61 61 65 71 74 68 74 77 77 74 71 65 65 61 55 55 52 45 45 45 45 45 45 48 52 48 48 48
0 16 3 0 0 3 3 0 3 6 10 23 26 35 39 45 55 58 77 74 71 74 71 71 71 68 71 68 68 61 52 45 42 42 42 39 42 45 42 48 45 48 42 42
0 3 0 0 0 3 10 6 0 0 29 32 35 45 58 68 71 81 74 68 68 68 65 61 65 65 61 55 55 45 42 42 42 42 35 39 39 39 42 42 39 39 35 35
0 0 6 0 0 3 26 23 23 65 68 55 45 48 61 71 68 71 68 68 61 61 58 55 52 52 52 52 48 45 42 39 39 35 35 35 35 35 35 35 32 29 29 26
3 10 10 16 23 45 39 58 71 71 68 55 52 48 52 58 61 58 61 58 52 48 52 52 48 48 52 52 48 42 42 39 35 32 35 32 29 26 19 23 23 19 19 23
0 6 13 35 42 42 42 48 58 52 55 52 52 45 48 55 58 55 52 48 48 45 48 48 45 48 48 42 39 39 39 32 29 26 23 23 16 16 16 16 16 16 16 16
3 6 23 32 42 39 39 55 52 48 48 48 42 45 48 52 45 45 45 45 42 45 42 39 39 42 39 39 35 35 32 29 23 16 13 16 13 10 6 6 6 6 6 6
10 19 26 26 42 45 42 35 35 42 42 39 42 39 42 45 42 35 39 35 39 42 42 32 26 19 26 29 32 29 26 19 16 16 16 16 16 6 6 6 6 3 0 0
Height
5886 5891 5894 5899 5903 5907 5912 5915 5918 5921 5921 5921 5921 5920 5921 5920 5919 5920 5919 5918 5917 5918 5918 5917 5916 5916 5915 5915 5914 5913 5912 5911 5910 5909 5909 5908 5907 5907 5907 5907 5907 5907 5907 5906
5882 5887 5892 5895 5899 5903 5907 5911 5916 5919 5919 5918 5919 5919 5919 5919 5918 5919 5919 5918 5917 5917 5917 5917 5916 5915 5915 5914 5913 5913 5912 5911 5910 5909 5908 5907 5907 5907 5907 5906 5906 5906 5906 5906
5878 5885 5888 5891 5895 5899 5903 5908 5912 5916 5916 5915 5917 5918 5917 5917 5916 5917 5918 5917 5916 5916 5916 5916 5916 5915 5915 5914 5913 5913 5912 5910 5909 5908 5907 5907 5906 5906 5906 5905 5905 5905 5905 5905
5873 5878 5882 5886 5891 5895 5899 5904 5908 5912 5912 5913 5915 5916 5915 5913 5914 5915 5915 5916 5915 5915 5915 5914 5915 5914 5914 5914 5913 5912 5911 5910 5909 5908 5906 5906 5905 5905 5904 5904 5903 5903 5903 5903
5868 5873 5877 5882 5887 5891 5895 5900 5903 5907 5908 5910 5911 5913 5914 5911 5911 5912 5912 5913 5914 5914 5913 5913 5913 5913 5913 5912 5912 5911 5910 5909 5908 5907 5906 5905 5904 5904 5903 5902 5902 5902 5902 5902
5863 5868 5872 5877 5882 5886 5891 5896 5898 5901 5904 5905 5908 5910 5911 5910 5909 5910 5910 5911 5912 5912 5911 5911 5911 5911 5911 5911 5910 5910 5909 5908 5906 5905 5905 5904 5903 5902 5901 5901 5900 5900 5900 5900
5857 5862 5867 5872 5877 5881 5886 5891 5894 5897 5899 5902 5905 5907 5909 5907 5906 5907 5907 5908 5909 5909 5909 5909 5909 5910 5909 5909 5909 5908 5907 5906 5905 5904 5903 5902 5901 5900 5899 5899 5898 5898 5898 5898
5853 5858 5862 5866 5872 5877 5881 5886 5891 5895 5898 5900 5901 5903 5906 5905 5904 5904 5905 5905 5906 5907 5907 5907 5907 5907 5908 5907 5907 5906 5906 5904 5903 5902 5901 5901 5900 5898 5897 5897 5896 5896 5896 5896
5849 5854 5858 5862 5867 5872 5876 5881 5888 5893 5896 5898 5900 5900 5901 5900 5901 5902 5902 5902 5904 5904 5904 5905 5905 5905 5905 5905 5905 5904 5903 5902 5901 5900 5899 5899 5898 5896 5895 5894 5894 5894 5894 5894
5844 5849 5853 5857 5862 5866 5872 5877 5883 5886 5891 5894 5897 5896 5896 5896 5897 5898 5898 5900 5901 5901 5901 5902 5901 5902 5903 5902 5902 5902 5901 5900 5899 5898 5897 5897 5896 5894 5893 5893 5892 5892 5892 5892
5839 5844 5849 5851 5856 5861 5867 5872 5877 5882 5886 5891 5893 5895 5893 5893 5893 5894 5895 5896 5897 5898 5898 5898 5897 5899 5900 5900 5899 5899 5898 5898 5897 5896 5895 5894 5893 5892 5891 5891 5890 5890 5890 5890
5833 5840 5845 5848 5852 5857 5862 5867 5872 5877 5881 5885 5887 5890 5887 5888 5889 5890 5891 5892 5894 5894 5895 5895 5894 5895 5896 5896 5896 5896 5895 5895 5894 5893 5892 5891 5891 5890 5889 5889 5888 5888 5888 5888
5827 5834 5840 5844 5848 5851 5856 5861 5866 5872 5876 5880 5883 5886 5883 5884 5885 5886 5887 5889 5890 5891 5891 5892 5891 5892 5893 5893 5893 5893 5892 5892 5891 5890 5889 5889 5888 5887 5886 5886 5886 5886 5885 5885
5822 5827 5835 5841 5844 5847 5851 5856 5861 5867 5871 5876 5879 5880 5879 5880 5881 5881 5884 5885 5886 5888 5888 5889 5889 5889 5890 5890 5889 5888 5889 5888 5888 5887 5886 5886 5885 5884 5884 5883 5883 5882 5882 5881
5816 5822 5828 5834 5840 5843 5847 5851 5857 5862 5867 5872 5875 5876 5876 5876 5876 5877 5880 5881 5883 5883 5884 5885 5886 5886 5886 5886 5886 5886 5885 5885 5884 5884 5883 5883 5882 5882 5881 5880 5879 5879 5878 5878
5810 5817 5824 5829 5835 5839 5843 5847 5852 5857 5862 5866 5870 5872 5871 5871 5871 5872 5875 5877 5878 5879 5880 5881 5882 5882 5883 5883 5883 5883 5882 5881 5881 5881 5880 5880 5879 5879 5878 5876 5875 5875 5875 5874
5805 5812 5818 5825 5830 5835 5839 5843 5847 5852 5857 5861 5864 5867 5866 5866 5866 5867 5870 5872 5874 5875 5876 5877 5877 5878 5879 5879 5879 5879 5879 5878 5878 5878 5877 5877 5876 5876 5874 5873 5872 5872 5871 5871
5801 5807 5814 5820 5826 5830 5836 5839 5842 5847 5851 5854 5858 5860 5860 5859 5862 5864 5866 5867 5869 5870 5872 5872 5873 5874 5875 5875 5876 5876 5876 5876 5875 5875 5874 5874 5873 5872 5871 5870 5869 5868 5867 5867
5796 5802 5809 5815 5820 5825 5829 5832 5836 5841 5845 5848 5851 5853 5854 5856 5857 5859 5861 5862 5864 5865 5867 5868 5869 5870 5871 5871 5872 5872 5872 5872 5872 5871 5871 5870 5869 5868 5867 5867 5866 5865 5863 5863
5792 5798 5804 5809 5815 5820 5824 5827 5831 5836 5838 5841 5844 5847 5849 5851 5853 5854 5856 5857 5859 5860 5862 5863 5865 5866 5866 5867 5868 5868 5868 5868 5868 5867 5867 5866 5865 5864 5863 5862 5861 5860 5859 5858
5788 5793 5798 5804 5809 5813 5816 5821 5826 5831 5832 5835 5838 5840 5843 5845 5847 5849 5850 5852 5854 5856 5857 5859 5860 5861 5862 5863 5863 5863 5863 5864 5863 5863 5862 5862 5861 5860 5859 5858 5857 5856 5855 5854
5784 5789 5795 5799 5804 5808 5809 5814 5818 5821 5825 5829 5833 5836 5838 5840 5841 5843 5845 5847 5850 5851 5853 5854 5856 5857 5857 5858 5858 5858 5858 5858 5858 5858 5858 5857 5856 5855 5854 5853 5852 5851 5850 5849
5779 5785 5790 5795 5799 5801 5804 5807 5811 5816 5820 5824 5827 5830 5833 5835 5836 5839 5841 5843 5845 5847 5848 5850 5851 5852 5853 5853 5853 5853 5853 5853 5853 5853 5852 5851 5850 5850 5849 5848 5847 5846 5845 5844
5774 5780 5784 5788 5792 5795 5798 5801 5806 5810 5815 5818 5821 5824 5827 5830 5832 5834 5836 5838 5840 5842 5843 5845 5846 5847 5848 5848 5848 5848 5848 5848 5848 5847 5847 5846 5845 5844 5843 5842 5841 5840 5839 5838
5768 5773 5778 5782 5786 5789 5793 5796 5801 5806 5809 5813 5815 5818 5822 5824 5827 5829 5831 5833 5835 5837 5838 5840 5841 5842 5842 5843 5843 5843 5843 5843 5843 5842 5841 5840 5839 5838 5837 5836 5835 5834 5833 5832
5761 5766 5771 5775 5780 5784 5788 5792 5797 5801 5804 5807 5811 5814 5816 5819 5821 5823 5826 5828 5830 5831 5833 5834 5835 5836 5837 5838 5838 5838 5838 5837 5837 5836 5835 5834 5833 5833 5832 5831 5830 5828 5827 5826
Wind_Speed
26 25 24 21 19 16 14 14 12 12 16 15 13 13 12 11 10 9 9 10 8 8 9 9 9 10 10 10 10 10 10 10 10 9 9 8 7 6 6 6 6 6 7 7
28 26 23 23 22 21 20 17 14 14 18 18 16 15 14 13 11 11 10 10 9 10 9 9 9 9 10 10 11 10 10 11 10 9 8 8 7 7 8 8 7 7 7 7
28 25 25 25 25 24 23 20 17 17 19 19 16 15 16 17 15 13 12 12 10 10 10 9 9 9 10 10 11 11 11 11 10 9 9 8 8 8 9 8 7 7 7 7
29 27 27 27 26 25 24 21 19 19 21 19 16 16 17 18 16 14 13 13 13 12 11 11 10 10 10 11 11 11 11 11 10 9 9 9 9 9 9 8 8 8 8 8
31 29 29 28 27 26 25 21 22 21 21 20 18 17 16 19 16 14 13 14 14 13 12 12 10 10 11 11 11 12 11 11 11 10 10 11 10 10 10 9 9 9 8 8
32 31 30 29 28 27 26 23 23 23 21 22 19 18 17 20 19 16 15 15 14 13 12 12 11 10 11 11 12 12 12 12 12 11 11 11 11 11 10 10 10 9 9 9
33 32 31 31 30 28 28 26 23 22 22 21 18 19 18 19 19 17 16 15 15 14 14 14 13 11 11 12 12 12 13 13 12 12 12 12 12 12 11 10 11 10 9 9
32 31 31 31 30 29 29 28 25 20 17 16 16 18 17 19 21 20 18 17 16 16 15 15 14 13 12 13 13 13 13 13 13 13 12 12 13 14 13 12 11 11 10 9
30 30 31 30 29 29 29 28 24 20 16 15 16 17 18 21 21 20 18 17 17 17 16 16 15 14 13 13 14 14 14 14 13 13 13 14 14 13 13 12 10 10 10 10
27 27 29 30 30 30 29 27 26 26 22 19 17 18 20 20 20 19 18 17 18 18 18 17 16 16 15 15 15 15 15 15 14 14 15 14 14 14 13 12 12 11 11 11
28 25 26 29 31 30 30 29 29 27 24 20 17 18 19 22 22 20 18 17 16 16 17 17 17 16 16 17 16 16 16 16 15 15 15 14 14 14 14 13 12 12 12 13
31 26 25 28 27 28 28 28 28 28 27 25 21 18 18 20 20 19 18 16 16 17 17 17 18 17 17 17 17 17 16 15 15 15 15 15 15 15 15 14 13 13 14 14
32 30 27 26 28 28 29 29 28 27 26 24 21 20 20 21 19 19 19 18 18 17 17 17 17 17 17 17 17 17 16 15 16 16 15 15 15 15 15 15 14 15 15 15
34 34 30 24 24 26 28 28 28 28 27 24 22 19 20 20 20 22 21 21 19 18 18 18 18 18 17 18 17 17 16 16 15 16 16 15 15 15 16 16 16 16 16 16
34 34 33 27 20 20 23 27 28 28 27 24 21 21 22 20 21 23 22 21 21 20 19 19 19 19 18 18 17 17 17 16 16 16 16 15 16 16 17 17 18 17 17 17
35 34 33 30 24 22 22 24 25 27 27 25 22 21 23 23 25 26 23 22 22 21 20 19 19 19 19 18 18 18 17 16 16 16 16 16 16 17 18 18 17 17 17 18
34 34 33 30 26 25 25 25 25 26 26 26 26 25 26 27 27 27 25 24 23 22 22 21 20 19 19 19 18 19 18 17 17 17 17 16 17 18 18 18 17 17 18 18
32 33 32 29 27 27 25 24 25 26 27 28 28 29 27 26 28 28 27 25 24 23 22 21 20 19 19 19 18 18 18 18 18 18 18 19 19 19 18 17 18 18 18 19
31 32 31 29 27 26 25 26 26 27 28 29 29 28 29 28 29 29 27 25 24 23 22 21 20 20 19 19 19 19 19 19 19 19 19 19 19 19 18 19 19 19 20 20
31 31 31 30 28 25 26 26 27 27 29 29 30 30 30 29 30 28 26 25 23 22 22 21 20 20 20 20 20 20 20 20 20 20 20 19 19 19 19 20 20 20 20 20
31 31 31 29 29 27 26 26 26 28 30 30 30 30 29 29 29 28 26 24 22 22 21 21 21 20 21 21 21 21 21 21 21 21 20 20 20 20 20 20 20 21 21 21
30 31 31 30 29 28 28 28 29 30 30 30 29 29 29 28 28 26 24 22 22 22 21 21 21 21 21 21 21 22 22 22 22 22 21 21 21 21 21 21 21 22 21 21
31 32 32 32 31 30 30 30 29 28 29 28 28 28 27 27 27 25 24 24 23 23 22 22 22 22 22 22 22 22 22 22 22 22 22 23 23 22 22 22 22 23 23 23
32 32 33 34 33 32 30 29 28 28 27 27 27 27 26 26 26 25 24 24 23 23 23 23 22 22 22 22 22 22 22 22 23 23 24 24 23 23 23 23 24 24 24 23
33 35 36 36 36 34 32 29 28 27 27 27 26 25 26 26 25 25 25 24 24 23 23 23 23 23 23 23 23 23 23 23 24 23 23 22 22 22 23 23 24 24 24 23
33 35 35 34 34 32 31 30 28 28 28 27 26 26 26 25 25 25 24 24 24 24 24 24 23 23 24 24 23 23 23 23 23 23 22 22 22 23 23 23 23 23 23 24
Wind_Direction
226 225 222 221 219 211 212 221 224 231 243 249 249 252 255 261 270 275 280 295 303 312 321 328 331 335 337 340 343 343 342 344 340 332 327 320 316 308 308 309 311 306 302 299
226 226 224 221 218 211 211 215 216 227 242 246 245 250 256 256 265 276 279 287 296 303 314 321 324 330 335 336 337 340 338 337 336 332 329 323 318 312 308 303 304 306 304 300
228 226 224 222 219 217 216 216 211 222 237 248 248 250 256 259 263 272 277 283 290 298 304 311 318 320 327 331 334 336 337 337 335 334 331 327 321 317 311 309 306 304 303 306
224 223 225 224 222 221 221 218 215 224 233 241 247 251 259 263 263 265 272 278 283 289 297 302 309 312 316 322 326 329 333 334 334 334 332 326 322 318 314 307 301 298 296 303
224 222 225 224 223 222 220 218 220 225 236 237 238 248 254 267 268 267 271 276 280 286 292 298 305 307 311 317 321 323 326 327 328 326 326 327 323 319 316 309 302 299 299 302
223 224 226 225 223 222 219 219 227 228 233 239 234 237 248 259 265 267 271 274 275 280 285 291 298 304 306 310 314 318 320 321 322 323 321 320 319 314 313 308 301 299 298 298
222 224 225 225 223 222 219 219 226 231 234 243 241 239 245 252 260 262 260 266 271 274 278 284 291 298 300 304 310 314 317 316 314 314 316 317 315 314 313 311 303 302 301 299
224 226 226 227 224 223 223 223 224 230 243 253 250 245 241 249 254 258 257 258 267 273 277 279 284 288 291 297 305 310 312 314 312 309 312 317 317 317 318 315 307 303 303 304
223 226 227 229 225 223 224 223 222 224 230 246 245 247 245 247 252 254 252 259 262 265 269 273 277 282 285 291 299 305 307 309 311 310 312 313 311 315 317 313 308 305 305 304
218 224 227 228 223 222 223 221 215 216 222 233 238 245 253 261 261 261 258 257 259 263 267 270 273 278 280 285 292 299 302 304 307 306 307 309 308 313 315 313 311 307 303 302
210 218 223 228 224 221 220 218 216 218 219 228 239 243 242 250 257 261 260 255 256 261 266 267 267 274 277 280 286 294 297 299 303 304 302 305 303 306 309 308 306 305 304 303
208 211 216 228 227 221 222 221 218 218 218 219 228 241 238 244 253 257 257 255 256 257 261 265 266 269 274 278 283 290 293 295 297 298 298 299 299 301 299 301 298 298 300 301
206 208 209 220 225 220 218 218 216 218 221 222 228 246 247 250 251 251 254 257 259 259 260 262 265 268 274 276 281 287 288 292 295 295 295 296 297 297 298 298 296 295 296 296
208 210 206 214 228 227 221 219 217 215 218 221 225 243 248 253 252 249 254 259 258 259 260 261 264 269 273 276 277 280 284 288 292 294 295 294 295 295 296 295 296 296 297 295
209 209 206 201 213 225 224 220 218 217 216 219 223 237 249 253 252 253 256 259 260 260 259 262 265 268 272 276 279 280 283 284 289 292 292 289 291 294 294 293 293 294 295 294
208 206 203 201 203 215 221 220 217 216 215 215 215 227 239 243 249 253 258 259 259 260 261 263 265 268 270 273 277 281 285 283 288 291 293 291 292 293 294 293 293 292 293 295
209 208 203 202 204 212 217 216 214 214 214 215 218 225 235 243 247 253 258 259 258 259 262 263 265 268 270 272 275 279 283 285 288 291 292 293 292 294 295 290 288 290 293 294
209 207 206 202 204 212 219 219 215 214 215 216 220 227 235 241 248 254 257 259 259 260 260 260 263 266 269 271 272 276 280 283 286 289 291 291 292 294 293 291 289 291 293 294
207 204 201 199 205 213 214 214 213 213 216 220 221 227 236 243 250 253 255 256 257 258 256 257 262 266 268 270 271 274 277 280 283 286 288 289 290 293 291 292 292 292 292 293
207 202 201 200 200 209 217 218 216 219 221 222 226 231 236 243 248 253 253 253 252 252 253 256 262 266 267 269 270 274 277 280 282 285 286 285 286 290 291 292 294 295 295 293
207 203 200 201 204 208 214 218 220 221 224 225 227 230 235 242 247 250 249 247 248 249 252 256 261 265 266 269 272 275 277 280 282 283 283 284 285 288 292 294 295 294 294 295
209 204 203 203 205 213 215 216 219 222 225 229 231 234 238 242 246 248 248 247 247 249 252 255 260 264 267 269 273 275 278 280 282 282 282 284 286 287 288 289 291 293 294 295
207 205 204 207 212 216 218 222 225 226 229 232 234 236 238 240 244 246 247 248 247 250 254 256 260 264 266 270 273 275 277 280 282 283 283 285 286 286 286 287 290 292 293 293
211 209 209 211 214 219 222 222 225 228 230 231 234 235 236 239 243 247 247 248 249 251 253 255 259 263 266 270 273 275 277 280 282 284 285 285 284 284 285 287 289 291 292 291
208 209 213 215 218 223 225 224 226 229 231 231 234 234 236 240 244 246 246 247 248 250 252 255 258 262 265 270 273 276 279 281 281 284 286 285 285 285 287 288 289 291 293 293
213 213 214 216 218 222 224 227 228 230 232 232 234 236 238 241 244 245 246 247 248 250 252 255 259 263 266 269 272 276 279 282 284 284 286 286 286 286 286 287 288 290 291 292